FENGYUN 1C DEB

Satellite information

Favourite Embed

Satellite Type and Status

DEBRISIN ORBIT

Key statistics

Satellite FENGYUN 1C DEB at a glance.

Uptime

9495

Days in orbit

Revolutions

≈ 14.4

Per day

Orbit

SSO

Sun Synchronous Orbit

Inclination

102.2

Latest

Satellite identification and parameters

Extended collection of information and parameters for FENGYUN 1C DEB.

Object identification

Identified? True

Debris? True

Object name: FENGYUN 1C DEB

International designator: 1999-025SA

Object number (NORAD): 30121

Object ID (CCSDS): 30121

Country: PEOPLES REPUBLIC OF CHINA (PRC)

Current information (Y/N): Y

RCS size: SMALL

Orbital parameters

Period: 100.26 minutes

Inclination: 102.1642 deg

SMA: 7149.002 km

Apoapsis: 796.538 km

Periapsis: 745.195 km

RAAN: 59.2818 deg

Eccentricy: 0.0035909

Argument of periapsis: 13.586 deg

Mean anomaly: 48.8049 deg

Mean motion: 14.36265292 rev/day

Mean motion (dot): 0.00008156 rev/day2

B* drag term: 0.0027931 1/REarth

Two-line elements (TLE)

Creation date: May 7, 2025, 10:46 p.m.

Reference frame: TEME

Reference center: EARTH

Epoch: May 7, 2025, 7:07 p.m. UTC

TLE line 0: 0 FENGYUN 1C DEB

TLE line 1: 1 30121U 99025SA 25127.79667045 .00008156 00000-0 27931-2 0 9997

TLE line 2: 2 30121 102.1642 59.2818 0035909 13.5860 48.8049 14.36265292944052

Live tracking on map

Real-time ground track for satellite FENGYUN 1C DEB.

In-orbit conjunctions

A list of the most updated potential collisions computed for object FENGYUN 1C DEB.

Target Orbit TCA Probability of collision Miss distance Type
FENGYUN 1C DEB SSO 2025-01-08 04:53:14 0.0001363718 207.0 (m) DEBRIS
FENGYUN 1C DEB SSO 2024-09-26 11:46:28 0.0001945239 635.0 (m) DEBRIS

Associated space launch

Chinese polar orbiting meteorological satellite

FENGYUN 1C DEB was lifted into orbit during the mission ‘Long March 4B | Feng Yun 1C’, on board a Long March 4B space rocket.

The launch took place on May 10, 1999, 1:33 a.m. from Launch Complex 7.

For more information about the launch, click the button.

Launch to space Long March 4B | Feng Yun 1C
Long March 4B | Feng Yun 1C

Agency: N/A

Status: Launch Successful

Launch date: May 10, 1999, 1:33 a.m. UTC

Rocket: Long March 4B

Launch pad: Launch Complex 7

Location: Taiyuan Satellite Launch Center, People's Republic of China

...

Latest news about this satellite

There are no fresh news available about this satellite. Check back as we update our databases every day.


Newsletter sign-up

Weekly statistics, charts and insights to help you stay on top of the space industry.